Location: CNYAC Observatory
(43.2150°N, 74.9500°W)
Time: 11:30:14
(UTC-04:00)

Meteor 1-22 Rocket - Visible Passes

Search period start: 27 May 2018 00:00
Search period end: 06 June 2018 00:00
Orbit: 786 x 942 km, 81.2° (Epoch: 26 May)

Date Brightness Start Highest point End Pass type
(mag) Time Alt. Az. Time Alt. Az. Time Alt. Az.
27 May 5.7 00:20:26 10° NW 00:24:30 23° W 00:25:51 20° WSW visible
27 May 4.6 22:28:31 10° N 22:33:36 43° ENE 22:35:46 29° SE visible
28 May 5.7 00:12:24 10° NW 00:16:28 23° W 00:18:04 20° WSW visible
28 May 4.6 22:20:30 10° N 22:25:34 43° ENE 22:28:00 27° SE visible
29 May 5.8 00:04:23 10° NW 00:08:27 23° W 00:10:18 19° WSW visible
29 May 4.6 22:12:28 10° N 22:17:33 43° ENE 22:20:14 24° SE visible
29 May 5.8 23:56:21 10° NW 00:00:25 23° W 00:02:32 18° WSW visible
30 May 4.6 22:04:27 10° N 22:09:31 43° ENE 22:12:29 22° SE visible
30 May 5.8 23:48:19 10° NW 23:52:24 23° W 23:54:48 17° WSW visible
31 May 4.6 21:56:26 10° N 22:01:29 42° ENE 22:04:46 20° SE visible
31 May 5.9 23:40:17 10° NW 23:44:22 23° W 23:47:04 16° SW visible
01 Jun 4.6 21:48:25 10° N 21:53:27 42° ENE 21:57:04 18° SE visible
01 Jun 5.9 23:32:15 10° NW 23:36:21 23° W 23:39:23 14° SW visible
02 Jun 4.6 21:40:23 10° N 21:45:24 42° ENE 21:49:23 15° SE visible
02 Jun 5.9 23:24:13 10° NW 23:28:19 23° W 23:31:42 13° SW visible
03 Jun 4.6 21:32:22 10° N 21:37:22 42° ENE 21:41:44 13° SE visible
03 Jun 5.9 23:16:11 10° NW 23:20:17 23° W 23:24:03 11° SW visible
04 Jun 4.6 21:24:20 10° N 21:29:21 42° ENE 21:34:07 11° SE visible
04 Jun 5.9 23:08:08 10° NW 23:12:16 24° W 23:16:24 10° SW visible
05 Jun 4.6 21:16:19 10° N 21:21:19 41° ENE 21:26:19 10° SE visible
05 Jun 6.0 23:00:07 10° NW 23:04:14 24° W 23:08:23 10° SW visible
